Weather History for VIAR - February, 2013

Change the Weather History Date:

Thursday, February 28, 2013

  Actual Average Record
Temperature  
Mean Temperature 59 °F -  
Max Temperature 71 °F 71 °F 80 °F (2003)
Min Temperature 47 °F 51 °F 44 °F (2012)
Degree Days  
Heating Degree Days 6    
Growing Degree Days 9 (Base 50)    
Moisture  
Dew Point 56 °F    
Average Humidity 90    
Maximum Humidity 100    
Minimum Humidity 48    
Precipitation  
Precipitation 0.00 in - - ()
Sea Level Pressure  
Sea Level Pressure 30.08 in    
Wind  
Wind Speed 5 mph ()    
Max Wind Speed 13 mph    
Max Gust Speed -    
Visibility 2.8 miles    
Events      
Averages and records for this station are not official NWS values.
T = Trace of Precipitation, MM = Missing Value Source: Averaged Metar Reports

Daily Weather History Graph

Daily Weather History Graph

Search for Another Location

Airport or City:

Trip Planner

Search our weather history database for the weather conditions in past years. The results will help you decide how hot, cold, wet, or windy it might be!

Date:

Astronomy

Feb. 28, 2013 Rise Set
Actual Time 6:59 AM IST 6:27 PM IST
Civil Twilight 6:34 AM IST 6:52 PM IST
Nautical Twilight 6:06 AM IST 7:20 PM IST
Astronomical Twilight 5:38 AM IST 7:48 PM IST
Moon 9:10 PM IST 8:05 AM IST
Length of Visible Light 12h 17m
Length of Day
11h 28m
Waning Gibbous, 93% of the Moon is Illuminated
Feb 28
Waning Gibbous
Mar 5
Last Quarter
Mar 12
New
Mar 19
First Quarter
Mar 27
Full

Hourly Weather History & Observations

Time (IST) Temp. Dew Point Humidity Pressure Visibility Wind Dir Wind Speed Gust Speed Precip Events Conditions
12:00 AM 53.6 °F 53.6 °F 100% 30.04 in 2.5 mi ENE 6.9 mph - N/A   Scattered Clouds
12:30 AM 51.8 °F 51.8 °F 100% 30.04 in 2.2 mi ENE 5.8 mph - N/A   Scattered Clouds
1:00 AM 51.8 °F 51.8 °F 100% 30.04 in 2.2 mi ENE 3.5 mph - N/A   Scattered Clouds
1:30 AM 51.8 °F 51.8 °F 100% 30.04 in 2.2 mi Variable 3.5 mph - N/A   Scattered Clouds
2:00 AM 51.8 °F 51.8 °F 100% 30.04 in 2.2 mi NE 4.6 mph - N/A   Scattered Clouds
2:30 AM 51.8 °F 51.8 °F 100% 30.04 in 2.2 mi Variable 3.5 mph - N/A   Scattered Clouds
3:00 AM 51.8 °F 51.8 °F 100% 30.04 in 2.2 mi ENE 4.6 mph - N/A   Scattered Clouds
3:30 AM 51.8 °F 51.8 °F 100% 30.04 in 2.2 mi Calm Calm - N/A   Scattered Clouds
4:00 AM 51.8 °F 51.8 °F 100% 30.04 in 2.2 mi Calm Calm - N/A   Scattered Clouds
4:30 AM 51.8 °F 51.8 °F 100% 30.04 in 2.2 mi Calm Calm - N/A   Scattered Clouds
5:00 AM 51.8 °F 51.8 °F 100% 30.01 in 2.2 mi Calm Calm - N/A   Scattered Clouds
5:30 AM 49 °F 49 °F 100% 30.03 in 2 mi Calm Calm - -   Mist
5:30 AM 50.0 °F 50.0 °F 100% 30.01 in 2.5 mi Calm Calm - N/A   Scattered Clouds
6:00 AM 50.0 °F 50.0 °F 100% 30.01 in 2.8 mi Calm Calm - N/A   Partly Cloudy
6:30 AM 50.0 °F 48.2 °F 94% 30.04 in 2.8 mi Calm Calm - N/A   Partly Cloudy
7:00 AM 48.2 °F 48.2 °F 100% 30.04 in 2.2 mi Calm Calm - N/A   Partly Cloudy
7:30 AM 48.2 °F 46.4 °F 93% 30.06 in 2.2 mi Calm Calm - N/A   Partly Cloudy
8:00 AM 50.0 °F 50.0 °F 100% 30.06 in 2.2 mi WNW 3.5 mph - N/A   Partly Cloudy
8:30 AM 54 °F 54 °F 98% 30.11 in 1 mi WNW 3.5 mph - -   Mist
8:30 AM 53.6 °F 53.6 °F 100% 30.09 in 2.2 mi Variable 3.5 mph - N/A   Partly Cloudy
9:00 AM 55.4 °F 55.4 °F 100% 30.09 in 2.5 mi NW 4.6 mph - N/A   Mist
9:30 AM 59.0 °F 59.0 °F 100% 30.12 in 3.1 mi NW 5.8 mph - N/A   Mist
10:00 AM 62.6 °F 62.6 °F 100% 30.12 in 3.7 mi Variable 4.6 mph - N/A   Unknown
10:30 AM 62.6 °F 62.6 °F 100% 30.15 in 3.7 mi NW 8.1 mph - N/A   Unknown
11:00 AM 66.2 °F 66.2 °F 100% 30.15 in 3.7 mi Variable 6.9 mph - N/A   Unknown
11:30 AM 69 °F 62 °F 73% 30.13 in 2 mi NW 9.2 mph - -   Scattered Clouds
11:30 AM 68.0 °F 62.6 °F 83% 30.15 in 3.7 mi NW 8.1 mph - N/A   Partly Cloudy
12:00 PM 68.0 °F 62.6 °F 83% 30.15 in 3.7 mi North 9.2 mph - N/A   Scattered Clouds
12:30 PM 68.0 °F 62.6 °F 83% 30.15 in 3.7 mi WSW 9.2 mph - N/A   Scattered Clouds
1:00 PM 68.0 °F 62.6 °F 83% 30.15 in 3.7 mi NNW 9.2 mph - N/A   Scattered Clouds
1:30 PM 69.8 °F 60.8 °F 73% 30.12 in 3.7 mi NNW 10.4 mph - N/A   Partly Cloudy
2:00 PM 69.8 °F 60.8 °F 73% 30.12 in 3.7 mi Variable 10.4 mph - N/A   Partly Cloudy
2:30 PM 70 °F 60 °F 62% 30.10 in 2 mi NW 11.5 mph - -   Scattered Clouds
3:00 PM 69.8 °F 59.0 °F 68% 30.09 in 3.7 mi NW 12.7 mph - N/A   Partly Cloudy
4:00 PM 69.8 °F 66.2 °F 88% 30.09 in 3.7 mi NW 12.7 mph - N/A   Partly Cloudy
4:30 PM 69.8 °F 60.8 °F 73% 30.09 in 3.7 mi NW 11.5 mph - N/A   Partly Cloudy
5:00 PM 69.8 °F 60.8 °F 73% 30.09 in 3.7 mi WNW 11.5 mph - N/A   Partly Cloudy
5:30 PM 68 °F 61 °F 72% 30.09 in 2 mi WNW 9.2 mph - -   Scattered Clouds
5:30 PM 68.0 °F 60.8 °F 78% 30.09 in 3.7 mi WNW 9.2 mph - N/A   Partly Cloudy
6:00 PM 66.2 °F 60.8 °F 83% 30.09 in 3.7 mi WNW 6.9 mph - N/A   Partly Cloudy
6:30 PM 62.6 °F 59.0 °F 88% 30.09 in 3.7 mi WNW 4.6 mph - N/A   Partly Cloudy
7:00 PM 60.8 °F 57.2 °F 88% 30.09 in 3.7 mi WNW 5.8 mph - N/A   Unknown
7:30 PM 60.8 °F 57.2 °F 88% 30.09 in 3.7 mi WNW 6.9 mph - N/A   Unknown
11:30 PM 52 °F 38 °F 48% 30.15 in 2 mi West 4.6 mph - -   Mist